Regional Weather Roundup
Issued by NWS

Home | Current Version | Previous Version | Graphics & Text | Print | Product List | Glossary On
Versions: 1 2 3 4 5 6 7 8 9 10 11 12 13 14 15 16 17 18 19 20 21 22 23 24 25 26 27 28 29 30 31 32 33 34 35 36 37 38 39 40 41 42 43 44 45 46 47 48 49 50
000
ASUS43 KMKX 222211
RWRWI

WISCONSIN REGIONAL WEATHER ROUNDUP
NATIONAL WEATHER SERVICE MILWAUKEE/SULLIVAN WI
500 PM CDT TUE JUL 22 2014

NOTE: "FAIR" INDICATES FEW OR NO CLOUDS BELOW 12,000 FEET WITH NO
SIGNIFICANT WEATHER AND/OR OBSTRUCTIONS TO VISIBILITY.

WIZ001-002-006>008-014>016-023>028-222300-
NORTHWEST WISCONSIN

CITY           SKY/WX    TMP DP  RH WIND       PRES   REMARKS
SUPERIOR ARPT  PTSUNNY   77  58  52 N10       30.03R
ASHLAND        CLOUDY    74  62  66 NE10      30.04R
HAYWARD        PTSUNNY   79  59  50 N9        30.04R HX  80
SIREN          MOSUNNY   78  58  51 N7        30.05R
RICE LAKE      MOSUNNY   81  60  49 NW9G18    30.04S HX  81
LADYSMITH      PTSUNNY   78  63  59 N10G16    30.04R HX  80
EAU CLAIRE     MOSUNNY   83  62  49 N10       30.01R HX  84
MENOMONIE      PTCLDY    79  61  53 NW8       30.03R HX  80
NEW RICHMOND   MOSUNNY   78  61  56 NW6       30.05R HX  80
OSCEOLA        PTSUNNY   80  63  55 NW9       30.06S HX  81
$$

WIZ003>005-009-010-017-018-222300-
NORTH CENTRAL WISCONSIN

CITY           SKY/WX    TMP DP  RH WIND       PRES   REMARKS
WOODRUFF       LGT RAIN  69  65  85 NW12G20   30.04R
RHINELANDER    CLOUDY    71  63  75 NW9       30.03R
EAGLE RIVER    LGT RAIN  69  60  73 NW16G23   30.02R
LAND O LAKES   DRIZZLE   66  63  89 N10G18    30.04R
PHILLIPS       CLOUDY    73  62  68 N13G18    30.03R
TOMAHAWK       CLOUDY    74  63  67 NW7       30.03R
MEDFORD        PTSUNNY   75  65  70 NW10G16   30.02S
MERRILL        MOSUNNY   77  65  65 N13G21    30.00R
$$

WIZ029-030-035-036-043>047-222300-
CENTRAL WISCONSIN

CITY           SKY/WX    TMP DP  RH WIND       PRES   REMARKS
WAUSAU         PTSUNNY   82  65  56 N16G24    29.96R HX  84
MOSINEE        MOSUNNY   82  64  54 NW13G20   29.98  HX  84
MARSHFIELD     MOSUNNY   81  65  58 NW18      29.99R HX  83
STEVENS POINT  PTSUNNY   81  64  56 NW9G18    29.97R HX  83
WAUPACA        SUNNY     91  62  38 NW15      29.92R HX  91
WAUTOMA        MOSUNNY   92  67  43 W15       29.93R HX  95
WISC RAPIDS    MOSUNNY   87  66  49 NW17      29.98R HX  89
CAMP DOUGLAS   MOSUNNY   86  70  58 NW8       29.96S HX  90
$$

WIZ011>013-019>022-031-037>040-048>050-222300-
NORTHEAST WISCONSIN

CITY           SKY/WX    TMP DP  RH WIND       PRES   REMARKS
ANTIGO         CLOUDY    76  65  67 NW17G24   29.99R
STURGEON BAY   SUNNY     88  66  48 NW13G18   29.88R HX  90
GREEN BAY      SUNNY     90  67  46 NW15      29.89R HX  93
MANITOWOC      MOSUNNY   90  74  59 W9        29.87S HX  99
APPLETON       MOSUNNY   90  64  43 NW14      29.91R HX  91
CLINTONVILLE   SUNNY     88  61  40 NW13      29.91R HX  88
OSHKOSH        PTSUNNY   88  71  57 NW17G24   29.90R HX  94
$$

WIZ032>034-041-042-053>061-222300-
SOUTHWEST WISCONSIN

CITY           SKY/WX    TMP DP  RH WIND       PRES   REMARKS
LA CROSSE      SUNNY     88  66  48 NW15      29.97S HX  90
SPARTA         SUNNY     86  64  47 NW10G16   29.98S HX  87
VIROQUA        FAIR      84  68  59 NW13G18   30.00S HX  87
BOSCOBEL       MOSUNNY   94  73  50 NW13G20   29.93R HX 103
PRAIRIE DU CHI SUNNY     89  67  48 NW13G21   29.95R HX  92
PLATTEVILLE    FAIR      91  75  60 W9G20     29.96R HX 101
$$

WIZ056-057-062-063-064-067-068-222300-
SOUTH CENTRAL WISCONSIN

CITY           SKY/WX    TMP DP  RH WIND       PRES   REMARKS
BARABOO/DELLS  PTSUNNY   89  70  54 NW12G18   29.94R HX  94
LONE ROCK      PTSUNNY   95  75  52 W10       29.92S HX 107
WATERTOWN      PTSUNNY   89  78  69 W7        29.90F HX 102
MADISON        MOSUNNY   92  73  53 W9        29.91F HX 100
MIDDLETON      FAIR      93  70  47 NW13      29.93S HX  98
MONROE         MOSUNNY   90  77  66 W12G20    29.94F HX 102
JANESVILLE     MOSUNNY   90  75  62 W14       29.92F HX 100
$$

WIZ051-052-058>065-066-070>072-222300-
SOUTHEAST WISCONSIN

CITY           SKY/WX    TMP DP  RH WIND       PRES   REMARKS
MILWAUKEE      PTSUNNY   88  74  63 W13G22    29.90F HX  96
WAUKESHA       PTSUNNY   84  73  70 SW8       29.93F HX  91
MILWAUKEE/TIMM MOSUNNY   88  73  62 MISG      29.91S HX  96
RACINE         MOSUNNY   87  75  67 SW10G21   29.93S HX  96
BURLINGTON     MOSUNNY   84  74  72 SW14      29.92F HX  92
KENOSHA        PTSUNNY   86  76  71 W15G21    29.93F HX  96
FOND DU LAC    MOSUNNY   91  73  55 W10G18    29.89F HX  99
SHEBOYGAN      SUNNY     90  74  59 W12G17    29.88F HX  99
WEST BEND      PTSUNNY   88  73  62 W9        29.90F HX  96
JUNEAU         MOSUNNY   89  68  50 W14       29.92S HX  92
$$

LSZ147-162-222300-
LAKE SUPERIOR

STATION/POSITION TIME  TEMP    WIND        PRES    WAVE
                       AIR SEA DIR/SP/G            HT/PER
                 (UTC) (F)     (DEG/KT/KT) (MB)    (FT/S)
W MID LAKE BUOY  2150   54 40  280/  8/ 10 1016.4R   2/ 4
PORT WING        2100   69     280/  2/  4 1016.6
SAXON HARBOR     2100          300/  2/  6 1016.6R
$$

LMZ867-665-643>646-222300-
LAKE MICHIGAN

STATION/POSITION TIME  TEMP    WIND        PRES    WAVE
                       AIR SEA DIR/SP/G            HT/PER
                 (UTC) (F)     (DEG/KT/KT) (MB)    (FT/S)
N MID LAKE BUOY  2150   62 59  230/ 10/ 10 1010.8R   5/ 6
NORTHPORT PIER   2100   84     280/  6/ 12 1010.5R
KEWAUNEE LAKESHO 2100   56     170/ 10/ 12 1011.8S
SHEBOYGAN LAKESH 2200   79     190/  5/  8 1011.4F
PORT WASHINGTON  2100          240/  9/ 16 1012.9R
ATWATER BUOY     2200   76     240/ 10     1013.5F
MILWAUKEE LAKESH 2100   86     260/ 14/ 19   N/A
S MID LAKE BUOY  2150   72 67  190/ 12/ 14 1013.4R   2/ 4
KENOSHA   LAKESH 2200   87     230/ 12/ 20   N/A
$$

TC  - TEMPERATURE IN CELSIUS
VSB - VISIBILITY IN STATUTE MILES
WCI - WIND CHILL INDEX
HX  - HEAT INDEX




USA.gov is the U.S. government's official web portal to all federal, state and local government web resources and services.